EW3670 Weather Reports


Display with metric or nautical units.
time (UTC)temp
F
wind
direction
speed
MPH
gust
MPH
rain 1hr
in
rain 24hr
in
rain mn
in
humidity
%
barometer
mb
20260906204606 75 0 1.0 9.0 0.00 0.00 0.00 44 1017.4
20260906203100 75 13 2.0 9.0 0.00 0.00 0.00 43 1017.6
20260906201603 75 263 2.0 4.0 0.00 0.00 0.00 43 1017.5
20260906200104 74 319 2.0 10.0 0.00 0.00 0.00 44 1017.5
20260906194601 74 348 2.0 5.0 0.00 0.00 0.00 43 1017.6
20260906193100 75 109 2.0 7.0 0.00 0.00 0.00 44 1017.6
20260906191605 74 288 1.0 4.0 0.00 0.00 0.00 45 1017.6
20260906190106 74 325 2.0 8.0 0.00 0.00 0.00 45 1017.7
20260906184610 74 88 3.0 9.0 0.00 0.03 0.00 44 1017.9
20260906183106 75 352 3.0 7.0 0.00 0.03 0.00 45 1018.0
20260906181605 73 243 2.0 9.0 0.00 0.03 0.00 46 1018.2
20260906180105 73 37 1.0 6.0 0.00 0.03 0.00 51 1018.3
20260906174602 72 41 2.0 8.0 0.00 0.03 0.00 51 1018.3
20260906173104 71 287 2.0 8.0 0.00 0.03 0.00 52 1018.4
20260906171602 71 33 2.0 5.0 0.00 0.03 0.00 52 1018.6
20260906164612 71 57 1.0 11.0 0.00 0.03 0.00 54 1018.8
20260906163059 71 331 2.0 9.0 0.00 0.03 0.00 55 1018.9
20260906161601 71 20 3.0 8.0 0.00 0.03 0.00 54 1019.2
20260906160106 71 352 3.0 8.0 0.00 0.03 0.00 56 1019.3
20260906154600 70 331 2.0 6.0 0.00 0.03 0.00 59 1019.4
20260906153103 68 237 2.0 8.0 0.00 0.03 0.00 61 1019.6
20260906151608 67 0 0.0 5.0 0.00 0.03 0.00 66 1019.6
20260906150112 67 13 1.0 5.0 0.00 0.03 0.00 67 1019.8
20260906144626 67 24 0.0 5.0 0.00 0.03 0.00 65 1019.9
20260906143116 67 352 1.0 4.0 0.00 0.03 0.00 66 1019.8
20260906141605 66 172 0.0 5.0 0.00 0.03 0.00 68 1019.9
20260906140107 66 0 1.0 4.0 0.00 0.03 0.00 67 1019.8
20260906134600 65 38 1.0 5.0 0.00 0.03 0.00 68 1019.9
20260906133108 64 40 1.0 4.0 0.00 0.03 0.00 70 1019.8
20260906131615 63 47 2.0 8.0 0.00 0.03 0.00 72 1019.9
20260906130106 63 22 2.0 7.0 0.00 0.03 0.00 75 1019.8
20260906124605 62 9 3.0 8.0 0.00 0.03 0.00 75 1019.8
20260906123111 62 35 2.0 6.0 0.00 0.03 0.00 77 1019.6
20260906121556 61 52 2.0 8.0 0.00 0.03 0.00 79 1019.7
20260906120122 60 30 2.0 6.0 0.00 0.03 0.00 80 1019.4
20260906114606 60 338 2.0 7.0 0.00 0.03 0.00 82 1019.1
20260906113103 59 58 2.0 4.0 0.00 0.03 0.00 85 1018.7
20260906111556 58 326 1.0 6.0 0.00 0.03 0.00 86 1018.7
20260906110108 58 340 1.0 5.0 0.00 0.03 0.00 87 1018.5
20260906104559 58 9 1.0 6.0 0.00 0.03 0.00 87 1018.3
20260906103103 58 73 0.0 4.0 0.00 0.03 0.00 87 1018.0
20260906101600 58 20 1.0 4.0 0.00 0.03 0.00 87 1018.0
20260906094606 59 0 0.0 3.0 0.00 0.03 0.00 86 1017.8
20260906093118 59 19 0.0 2.0 0.00 0.03 0.00 85 1017.7
20260906091605 60 30 0.0 5.0 0.00 0.03 0.00 84 1017.6
20260906090122 60 27 1.0 4.0 0.00 0.03 0.00 84 1017.4
20260906084604 60 15 1.0 4.0 0.00 0.03 0.00 84 1017.2
20260906083103 60 46 0.0 2.0 0.00 0.03 0.00 84 1017.0
20260906081601 60 15 1.0 5.0 0.00 0.03 0.00 85 1017.0
20260906080104 60 0 1.0 2.0 0.00 0.03 0.00 85 1016.9
20260906074600 60 69 0.0 2.0 0.00 0.03 0.00 85 1016.8
20260906073105 60 63 0.0 4.0 0.00 0.03 0.00 85 1016.6
20260906071610 60 360 1.0 3.0 0.00 0.03 0.00 85 1016.7
20260906064604 59 56 1.0 4.0 0.00 0.03 0.00 85 1016.7
20260906063104 59 126 1.0 4.0 0.00 0.03 0.00 85 1016.6
20260906061604 59 63 2.0 4.0 0.00 0.03 0.00 85 1016.5
20260906060100 59 0 1.0 4.0 0.00 0.03 0.00 85 1016.7
20260906054603 59 162 2.0 8.0 0.00 0.03 0.00 85 1016.7
20260906053058 59 93 1.0 7.0 0.00 0.03 0.00 85 1016.6
20260906051606 60 54 2.0 7.0 0.00 0.03 0.00 84 1016.6
20260906050132 60 40 1.0 7.0 0.00 0.03 0.00 84 1016.5
20260906044559 61 171 2.0 10.0 0.00 0.03 0.00 82 1016.3
20260906043108 61 140 2.0 8.0 0.00 0.03 0.00 82 1016.2
20260906041602 61 122 1.0 5.0 0.00 0.03 0.00 82 1016.3
20260906040112 62 51 1.0 8.0 0.00 0.03 0.00 83 1016.1
20260906034558 62 13 3.0 9.0 0.00 0.03 0.03 86 1015.8
20260906033057 62 51 0.0 3.0 0.00 0.03 0.03 87 1015.7
20260906031601 61 63 0.0 5.0 0.00 0.03 0.03 87 1015.5
20260906030134 61 59 1.0 5.0 0.00 0.03 0.03 88 1015.5
20260906024557 61 53 0.0 2.0 0.00 0.03 0.03 88 1015.4
20260906023124 61 90 1.0 3.0 0.00 0.03 0.03 87 1015.5
20260906021612 62 95 0.0 3.0 0.00 0.03 0.03 87 1015.5
20260906020107 62 0 0.0 4.0 0.00 0.03 0.03 87 1015.4
20260906014623 62 104 2.0 11.0 0.00 0.03 0.03 85 1015.3
20260906013101 63 81 2.0 9.0 0.00 0.03 0.03 85 1015.2
20260906011606 64 141 4.0 9.0 0.00 0.03 0.03 85 1015.1
20260906010058 65 159 2.0 10.0 0.00 0.03 0.03 83 1015.2
20260906004606 66 34 4.0 10.0 0.00 0.03 0.03 79 1014.9
20260906003109 66 28 0.0 4.0 0.00 0.03 0.03 79 1014.5
20260906001603 67 64 1.0 2.0 0.00 0.03 0.03 78 1014.3
20260906000109 67 111 1.0 4.0 0.00 0.03 0.03 77 1014.1
20260905234618 68 34 1.0 8.0 0.00 0.03 0.03 72 1014.2
20260905233103 68 15 3.0 9.0 0.00 0.03 0.03 70 1014.1
20260905231602 69 331 1.0 10.0 0.00 0.03 0.03 72 1014.1
20260905230100 69 36 2.0 9.0 0.00 0.03 0.03 72 1014.0
20260905224610 70 10 2.0 9.0 0.00 0.03 0.03 70 1014.0
20260905223102 70 26 3.0 9.0 0.00 0.03 0.03 69 1013.9
20260905221603 70 26 2.0 8.0 0.00 0.03 0.03 69 1013.7
20260905220059 70 31 3.0 8.0 0.00 0.03 0.03 68 1013.7
20260905214611 70 317 1.0 3.0 0.00 0.03 0.03 68 1013.6
20260905213111 70 5 1.0 4.0 0.00 0.03 0.03 66 1013.6
20260905211603 70 13 1.0 4.0 0.00 0.03 0.03 70 1013.6
20260905210101 70 352 4.0 9.0 0.00 0.03 0.03 70 1013.5